Location: Oshawa
(43.9000°N, 78.8670°W)
Time: 05:58:33
(UTC-04:00)

CARTOSAT-1 - Visible Passes

Search period start: 30 June 2015 00:00
Search period end: 10 July 2015 00:00
Orbit: 618 x 619 km, 97.9° (Epoch: 29 June)

Date Brightness Start Highest point End Pass type
(mag) Time Alt. Az. Time Alt. Az. Time Alt. Az.
30 Jun 5.4 21:49:38 10° ESE 21:52:27 18° ENE 21:55:23 10° NNE visible
30 Jun 4.2 23:26:08 26° SSW 23:28:14 48° W 23:32:26 10° NNW visible
01 Jul 5.0 22:05:59 12° ESE 22:09:07 25° ENE 22:12:42 10° NNE visible
01 Jul 4.9 23:43:07 22° SW 23:45:07 32° W 23:48:59 10° NNW visible
02 Jul 4.4 22:22:59 17° SE 22:25:49 36° ENE 22:29:48 10° N visible
03 Jul 5.5 00:00:07 17° SW 00:02:03 22° W 00:05:21 10° NW visible
03 Jul 3.8 22:39:59 22° SE 22:42:32 54° ENE 22:46:47 10° N visible
04 Jul 5.9 00:17:07 12° WSW 00:19:02 15° W 00:21:23 10° NW visible
04 Jul 3.5 22:56:59 27° SSE 22:59:18 82° ENE 23:03:39 10° N visible
05 Jul 5.7 21:38:26 10° E 21:40:28 14° ENE 21:42:42 10° NNE visible
05 Jul 3.8 23:13:59 29° S 23:16:06 66° WSW 23:20:25 10° NNW visible
06 Jul 5.3 21:54:05 10° ESE 21:57:07 19° ENE 22:00:15 10° NNE visible
06 Jul 4.4 23:30:59 26° SSW 23:32:56 43° W 23:37:04 10° NNW visible
07 Jul 4.8 22:10:51 14° ESE 22:13:46 27° ENE 22:17:29 10° N visible
07 Jul 5.1 23:47:59 21° SW 23:49:50 29° W 23:53:35 10° NW visible
08 Jul 4.3 22:27:51 19° SE 22:30:28 40° ENE 22:34:32 10° N visible
09 Jul 5.6 00:04:58 16° WSW 00:06:46 20° W 00:09:52 10° NW visible
09 Jul 3.7 22:44:50 25° SE 22:47:12 60° ENE 22:51:28 10° N visible
